Tracking 31028 objects as of 17-Jul-2025
HD Live streaming from Space Station
objects crossing your sky now

CZ-4C DEB

Track CZ-4C DEB now!
10-day predictions


NORAD ID: 43628
Int'l Code: 2013-065F
Perigee: 655.6 km
Apogee: 879.1 km
Inclination: 100.5 °
Period: 100.0 minutes
Semi major axis: 7138 km
RCS: Unknown
Launch date: November 20, 2013
Source: People's Republic of China (PRC)
Launch site: Taiyaun Space Center, China (TSC)

Note: This is SATELLITE DEBRIS
Your satellite tracking list
Your tracking list is empty




NASA's NSSDC Master Catalog

Two Line Element Set (TLE):
1 43628U 13065E   25196.69070153  .00011290  00000-0  31508-2 0  9994
2 43628 100.5256 103.2510 0156528  19.8710 340.8477 14.39481487355521
Source of the keplerian elements: AFSPC